{"data":{"norad_id":66102,"intl_designator":"2025-236S","name":"STARLINK-35599","alt_names":[],"object_type":"PAYLOAD","status":"ACTIVE","operator":null,"country":"US","launch_date":"2025-10-19","launch_site_code":"AFWTR","launch_vehicle":null,"mission":null,"orbit_class":"UNKNOWN","rcs_meters":null,"size_class":null,"mass_kg":null,"dimensions":null,"purposes":["comms"],"wikipedia_slug":null,"has_3d_model":false,"image_url":null,"decayed_at":null,"tle_current":{"epoch":"2026-05-25T03:52:55.648416Z","epoch_age_seconds":55020,"freshness":"FRESH","line1":"1 66102U 25236S   26145.16175519  .00020748  00000+0  62324-3 0  9996","line2":"2 66102  53.1611 108.6087 0001453  87.4704 272.6465 15.34413316 34591","mean_motion":15.34413316,"eccentricity":0.0001453,"inclination_deg":53.1611,"raan_deg":108.6087,"arg_perigee_deg":87.4704,"mean_anomaly_deg":272.6465,"bstar":0.00062324,"rev_number":3459,"period_min":93.846943648396,"perigee_km":461.66969419884,"apogee_km":463.65763087137,"semimajor_km":6840.8006625351,"source":"CELESTRAK","updated_at":"2026-05-25T13:38:21.030184Z"}}}